| time (UTC) | temp F | wind direction | speed MPH | gust MPH | rain 1hr in | rain 24hr in | rain mn in | humidity % | barometer mb |
| 20260508075801 | 55 | 90 | 5.0 | 5.0 | 0.00 | 0.54 | 0.00 | 73 | 1016.6 |
| 20260508065802 | 53 | 112 | 3.0 | 3.0 | 0.00 | 0.54 | 0.00 | 76 | 1016.2 |
| 20260508055802 | 51 | 135 | 1.0 | 1.0 | 0.00 | 0.54 | 0.00 | 85 | 1015.6 |
| 20260508045802 | 45 | 157 | 0.0 | 0.0 | 0.00 | 0.54 | 0.00 | 91 | 1015.3 |
| 20260508035802 | 44 | 225 | 0.0 | 0.0 | 0.00 | 0.54 | 0.00 | 91 | 1015.3 |
| 20260508025801 | 45 | 157 | 0.0 | 0.0 | 0.00 | 0.54 | 0.00 | 89 | 1014.7 |
| 20260508015801 | 46 | 202 | 2.0 | 2.0 | 0.00 | 0.54 | 0.00 | 81 | 1014.5 |
| 20260508005802 | 48 | 135 | 3.0 | 3.0 | 0.00 | 0.54 | 0.00 | 73 | 1014.3 |
| 20260507235802 | 46 | 112 | 2.0 | 2.0 | 0.00 | 0.54 | 0.00 | 81 | 1014.4 |
| 20260507225802 | 47 | 90 | 4.0 | 4.0 | 0.00 | 0.54 | 0.00 | 83 | 1014.6 |
| 20260507215802 | 49 | 90 | 6.0 | 6.0 | 0.00 | 0.54 | 0.00 | 83 | 1014.3 |
| 20260507205802 | 49 | 67 | 7.0 | 7.0 | 0.00 | 0.54 | 0.00 | 82 | 1014.2 |
| 20260507195802 | 48 | 67 | 5.0 | 5.0 | 0.00 | 0.54 | 0.00 | 86 | 1013.8 |
| 20260507185802 | 50 | 22 | 6.0 | 6.0 | 0.00 | 0.54 | 0.00 | 83 | 1013.4 |
| 20260507175802 | 51 | 337 | 4.0 | 4.0 | 0.00 | 0.54 | 0.00 | 81 | 1013.2 |
| 20260507165802 | 51 | 22 | 7.0 | 7.0 | 0.00 | 0.54 | 0.00 | 79 | 1012.7 |
| 20260507155802 | 51 | 67 | 7.0 | 7.0 | 0.00 | 0.54 | 0.00 | 79 | 1012.8 |
| 20260507145802 | 52 | 67 | 7.0 | 7.0 | 0.00 | 0.54 | 0.00 | 78 | 1012.8 |
| 20260507135802 | 53 | 45 | 7.0 | 7.0 | 0.00 | 0.54 | 0.00 | 75 | 1013.0 |
| 20260507125802 | 52 | 67 | 8.0 | 8.0 | 0.00 | 0.54 | 0.00 | 75 | 1012.6 |
| 20260507115801 | 51 | 45 | 9.0 | 9.0 | 0.00 | 0.54 | 0.00 | 78 | 1012.5 |
| 20260507105801 | 50 | 67 | 9.0 | 9.0 | 0.00 | 0.54 | 0.00 | 79 | 1012.6 |
| 20260507095801 | 50 | 90 | 7.0 | 7.0 | 0.00 | 0.54 | 0.00 | 79 | 1012.3 |
| 20260507085801 | 50 | 90 | 7.0 | 7.0 | 0.00 | 0.54 | 0.00 | 81 | 1011.7 |